Time,TemperatureF,DewpointF,PressureIn,WindDirection,WindDirectionDegrees,WindSpeedMPH,WindSpeedGustMPH,Humidity,HourlyPrecipIn,Conditions,Clouds,dailyrainin,SoftwareType,DateUTC
2013-10-04 00:31:00,60.0,56.1,30.15,East,83,0.0,0.0,87,0.00,,CLR,0.00,VWS V14.01,2013-10-04 04:31:00,
2013-10-04 00:32:00,60.0,56.1,30.15,East,83,0.0,0.0,87,0.00,,CLR,0.00,VWS V14.01,2013-10-04 04:32:00,
2013-10-04 00:35:00,60.0,56.1,30.15,East,83,0.0,0.0,87,0.00,,CLR,0.00,VWS V14.01,2013-10-04 04:35:00,
2013-10-04 00:36:00,60.1,56.6,30.15,East,83,0.0,0.0,88,0.00,,CLR,0.00,VWS V14.01,2013-10-04 04:36:00,
2013-10-04 00:38:00,59.8,56.2,30.15,East,83,0.0,0.0,88,0.00,,CLR,0.00,VWS V14.01,2013-10-04 04:38:00,
2013-10-04 00:39:00,59.8,56.2,30.15,East,83,0.0,0.0,88,0.00,,CLR,0.00,VWS V14.01,2013-10-04 04:39:00,
2013-10-04 00:42:00,59.6,56.3,30.15,East,83,0.0,0.0,89,0.00,,CLR,0.00,VWS V14.01,2013-10-04 04:42:00,
2013-10-04 00:43:00,59.4,56.2,30.15,East,83,0.0,0.0,89,0.00,,CLR,0.00,VWS V14.01,2013-10-04 04:43:00,
2013-10-04 00:44:00,59.4,56.2,30.15,East,83,0.0,0.0,89,0.00,,CLR,0.00,VWS V14.01,2013-10-04 04:44:00,
2013-10-04 00:47:00,59.4,56.2,30.15,East,83,0.0,0.0,89,0.00,,CLR,0.00,VWS V14.01,2013-10-04 04:47:00,
2013-10-04 00:50:00,59.4,56.2,30.15,East,83,0.0,0.0,89,0.00,,CLR,0.00,VWS V14.01,2013-10-04 04:50:00,
2013-10-04 00:51:00,59.4,56.2,30.15,East,83,0.0,0.0,89,0.00,,CLR,0.00,VWS V14.01,2013-10-04 04:51:00,
2013-10-04 00:56:00,59.6,56.3,30.15,East,83,0.0,0.0,89,0.00,,CLR,0.00,VWS V14.01,2013-10-04 04:56:00,
2013-10-04 00:58:00,59.6,56.3,30.15,East,83,0.0,0.0,89,0.00,,CLR,0.00,VWS V14.01,2013-10-04 04:58:00,
2013-10-04 01:02:00,59.6,56.3,30.15,East,83,0.0,0.0,89,0.00,,CLR,0.00,VWS V14.01,2013-10-04 05:02:00,
2013-10-04 01:03:00,59.6,56.3,30.15,East,83,0.0,0.0,89,0.00,,CLR,0.00,VWS V14.01,2013-10-04 05:03:00,
2013-10-04 01:04:00,59.6,56.3,30.15,East,83,0.0,0.0,89,0.00,,CLR,0.00,VWS V14.01,2013-10-04 05:04:00,
2013-10-04 01:09:00,59.2,56.0,30.15,East,83,0.0,0.0,89,0.00,,CLR,0.00,VWS V14.01,2013-10-04 05:09:00,
2013-10-04 01:11:00,59.2,56.0,30.15,East,83,0.0,0.0,89,0.00,,CLR,0.00,VWS V14.01,2013-10-04 05:11:00,
2013-10-04 01:14:00,59.0,55.5,30.15,East,83,0.0,0.0,88,0.00,,CLR,0.00,VWS V14.01,2013-10-04 05:14:00,
2013-10-04 01:19:00,59.0,55.5,30.15,East,83,0.0,0.0,88,0.00,,CLR,0.00,VWS V14.01,2013-10-04 05:19:00,
2013-10-04 01:22:00,59.2,55.7,30.15,East,83,0.0,0.0,88,0.00,,CLR,0.00,VWS V14.01,2013-10-04 05:22:00,
2013-10-04 01:24:00,59.0,55.5,30.15,East,83,0.0,0.0,88,0.00,,CLR,0.00,VWS V14.01,2013-10-04 05:24:00,
2013-10-04 01:27:00,59.0,55.5,30.15,East,83,0.0,0.0,88,0.00,,CLR,0.00,VWS V14.01,2013-10-04 05:27:00,
2013-10-04 01:33:00,58.7,54.8,30.15,SE,143,0.0,0.0,87,0.00,,CLR,0.00,VWS V14.01,2013-10-04 05:33:00,
2013-10-04 01:38:00,57.7,53.9,30.15,SE,143,0.0,0.0,87,0.00,,CLR,0.00,VWS V14.01,2013-10-04 05:38:00,
2013-10-04 01:43:00,57.5,54.0,30.15,SE,143,0.0,0.0,88,0.00,,CLR,0.00,VWS V14.01,2013-10-04 05:43:00,
2013-10-04 01:48:00,57.5,54.3,30.15,SE,143,0.0,0.0,89,0.00,,CLR,0.00,VWS V14.01,2013-10-04 05:48:00,
2013-10-04 01:53:00,57.2,54.0,30.15,SE,143,0.0,0.0,89,0.00,,CLR,0.00,VWS V14.01,2013-10-04 05:53:00,
2013-10-04 01:58:00,57.4,54.5,30.15,SE,143,0.0,0.0,90,0.00,,CLR,0.00,VWS V14.01,2013-10-04 05:58:00,
2013-10-04 02:03:00,57.7,55.1,30.15,SE,143,0.0,0.0,91,0.00,,CLR,0.00,VWS V14.01,2013-10-04 06:03:00,
2013-10-04 02:08:00,57.7,55.1,30.15,SE,143,0.0,0.0,91,0.00,,CLR,0.00,VWS V14.01,2013-10-04 06:08:00,
2013-10-04 02:13:00,57.7,55.1,30.15,SE,143,0.0,0.0,91,0.00,,CLR,0.00,VWS V14.01,2013-10-04 06:13:00,
2013-10-04 02:18:00,57.7,54.8,30.15,SE,143,0.0,0.0,90,0.00,,CLR,0.00,VWS V14.01,2013-10-04 06:18:00,
2013-10-04 02:23:00,57.5,54.6,30.15,SE,143,0.0,0.0,90,0.00,,CLR,0.00,VWS V14.01,2013-10-04 06:23:00,
2013-10-04 02:28:00,57.5,54.9,30.15,SE,143,0.0,0.0,91,0.00,,CLR,0.00,VWS V14.01,2013-10-04 06:28:00,
2013-10-04 02:33:00,57.5,55.2,30.15,SE,143,0.0,0.0,92,0.00,,CLR,0.00,VWS V14.01,2013-10-04 06:33:00,
2013-10-04 02:38:00,57.5,55.2,30.15,SE,143,0.0,0.0,92,0.00,,CLR,0.00,VWS V14.01,2013-10-04 06:38:00,
2013-10-04 02:43:00,57.4,55.1,30.15,SE,143,0.0,0.0,92,0.00,,CLR,0.00,VWS V14.01,2013-10-04 06:43:00,
2013-10-04 02:48:00,56.2,53.4,30.15,SE,143,0.0,0.0,90,0.00,,CLR,0.00,VWS V14.01,2013-10-04 06:48:00,
2013-10-04 02:53:00,55.7,53.1,30.15,SE,143,0.0,0.0,91,0.00,,CLR,0.00,VWS V14.01,2013-10-04 06:53:00,
2013-10-04 02:58:00,55.9,53.6,30.15,SE,143,0.0,0.0,92,0.00,,CLR,0.00,VWS V14.01,2013-10-04 06:58:00,
2013-10-04 03:03:00,55.9,53.6,30.15,SE,143,0.0,0.0,92,0.00,,CLR,0.00,VWS V14.01,2013-10-04 07:03:00,
2013-10-04 03:08:00,55.7,53.7,30.15,SE,143,0.0,0.0,93,0.00,,CLR,0.00,VWS V14.01,2013-10-04 07:08:00,
2013-10-04 03:13:00,56.1,54.1,30.15,SE,143,0.0,0.0,93,0.00,,CLR,0.00,VWS V14.01,2013-10-04 07:13:00,
2013-10-04 03:18:00,55.5,53.8,30.15,SE,143,0.0,0.0,94,0.00,,CLR,0.00,VWS V14.01,2013-10-04 07:18:00,
2013-10-04 03:23:00,55.3,53.6,30.15,SE,143,0.0,0.0,94,0.00,,CLR,0.00,VWS V14.01,2013-10-04 07:23:00,
2013-10-04 03:28:00,55.7,54.3,30.15,SE,143,0.0,0.0,95,0.00,,CLR,0.00,VWS V14.01,2013-10-04 07:28:00,
2013-10-04 03:33:00,55.7,54.3,30.15,SE,143,0.0,0.0,95,0.00,,CLR,0.00,VWS V14.01,2013-10-04 07:33:00,
2013-10-04 03:38:00,55.3,53.9,30.15,SE,143,0.0,0.0,95,0.00,,CLR,0.00,VWS V14.01,2013-10-04 07:38:00,
2013-10-04 03:43:00,55.3,54.2,30.15,SE,143,0.0,0.0,96,0.00,,CLR,0.00,VWS V14.01,2013-10-04 07:43:00,
2013-10-04 03:48:00,55.3,54.2,30.15,SE,143,0.0,0.0,96,0.00,,CLR,0.00,VWS V14.01,2013-10-04 07:48:00,
2013-10-04 03:53:00,55.3,54.5,30.15,SE,143,0.0,0.0,97,0.00,,CLR,0.00,VWS V14.01,2013-10-04 07:53:00,
2013-10-04 03:58:00,55.1,54.6,30.15,SE,143,0.0,0.0,98,0.00,,CLR,0.00,VWS V14.01,2013-10-04 07:58:00,
2013-10-04 04:03:00,55.0,54.4,30.15,SE,143,0.0,0.0,98,0.00,,CLR,0.00,VWS V14.01,2013-10-04 08:03:00,
2013-10-04 04:08:00,55.1,54.6,30.15,SE,143,0.0,0.0,98,0.00,,CLR,0.00,VWS V14.01,2013-10-04 08:08:00,
2013-10-04 04:13:00,55.1,54.6,30.15,SE,143,0.0,0.0,98,0.00,,CLR,0.00,VWS V14.01,2013-10-04 08:13:00,
2013-10-04 04:18:00,55.1,54.6,30.15,SE,143,0.0,0.0,98,0.00,,CLR,0.00,VWS V14.01,2013-10-04 08:18:00,
2013-10-04 04:23:00,55.1,54.6,30.15,SE,143,0.0,0.0,98,0.00,,CLR,0.00,VWS V14.01,2013-10-04 08:23:00,
2013-10-04 04:28:00,55.5,55.0,30.15,SE,143,0.0,0.0,98,0.00,,CLR,0.00,VWS V14.01,2013-10-04 08:28:00,
2013-10-04 04:33:00,55.7,55.1,30.15,SE,143,0.0,0.0,98,0.00,,CLR,0.00,VWS V14.01,2013-10-04 08:33:00,
2013-10-04 04:38:00,55.9,55.3,30.15,SE,143,0.0,0.0,98,0.00,,CLR,0.00,VWS V14.01,2013-10-04 08:38:00,
2013-10-04 04:43:00,55.9,55.3,30.15,SE,143,0.0,0.0,98,0.00,,CLR,0.00,VWS V14.01,2013-10-04 08:43:00,
2013-10-04 04:48:00,55.9,55.3,30.15,SE,143,0.0,0.0,98,0.00,,CLR,0.00,VWS V14.01,2013-10-04 08:48:00,
2013-10-04 04:53:00,55.5,55.0,30.15,SE,143,0.0,0.0,98,0.00,,CLR,0.00,VWS V14.01,2013-10-04 08:53:00,
2013-10-04 04:58:00,55.5,55.0,30.15,SE,143,0.0,0.0,98,0.00,,CLR,0.00,VWS V14.01,2013-10-04 08:58:00,
2013-10-04 05:03:00,55.5,55.0,30.15,SE,143,0.0,0.0,98,0.00,,CLR,0.00,VWS V14.01,2013-10-04 09:03:00,
2013-10-04 05:08:00,55.3,54.8,30.15,SE,143,0.0,0.0,98,0.00,,CLR,0.00,VWS V14.01,2013-10-04 09:08:00,
2013-10-04 05:13:00,55.3,54.8,30.15,SE,143,0.0,0.0,98,0.00,,CLR,0.00,VWS V14.01,2013-10-04 09:13:00,
2013-10-04 05:18:00,55.5,55.0,30.15,SE,143,0.0,0.0,98,0.00,,CLR,0.00,VWS V14.01,2013-10-04 09:18:00,
2013-10-04 05:23:00,55.5,55.0,30.15,SE,143,0.0,0.0,98,0.00,,CLR,0.00,VWS V14.01,2013-10-04 09:23:00,
2013-10-04 05:28:00,55.3,54.8,30.15,SE,143,0.0,0.0,98,0.00,,CLR,0.00,VWS V14.01,2013-10-04 09:28:00,
2013-10-04 05:33:00,55.1,54.6,30.18,SE,143,0.0,0.0,98,0.00,,CLR,0.00,VWS V14.01,2013-10-04 09:33:00,
2013-10-04 05:38:00,55.3,54.8,30.18,SE,143,0.0,0.0,98,0.00,,CLR,0.00,VWS V14.01,2013-10-04 09:38:00,
2013-10-04 05:43:00,55.3,54.8,30.18,SE,143,0.0,0.0,98,0.00,,CLR,0.00,VWS V14.01,2013-10-04 09:43:00,
2013-10-04 05:48:00,55.1,54.6,30.18,SE,143,0.0,0.0,98,0.00,,CLR,0.00,VWS V14.01,2013-10-04 09:48:00,
2013-10-04 05:53:00,55.1,54.6,30.18,SE,143,0.0,0.0,98,0.00,,CLR,0.00,VWS V14.01,2013-10-04 09:53:00,
2013-10-04 05:58:00,55.1,54.6,30.18,SE,143,0.0,0.0,98,0.00,,CLR,0.00,VWS V14.01,2013-10-04 09:58:00,
2013-10-04 06:03:00,55.1,54.6,30.18,SE,143,0.0,0.0,98,0.00,,CLR,0.00,VWS V14.01,2013-10-04 10:03:00,
2013-10-04 06:08:00,55.1,54.6,30.18,SE,143,0.0,0.0,98,0.00,,CLR,0.00,VWS V14.01,2013-10-04 10:08:00,
2013-10-04 06:13:00,55.1,54.6,30.18,SE,143,0.0,0.0,98,0.00,,CLR,0.00,VWS V14.01,2013-10-04 10:13:00,
2013-10-04 06:18:00,55.0,54.4,30.18,North,11,0.0,0.0,98,0.00,,CLR,0.00,VWS V14.01,2013-10-04 10:18:00,
2013-10-04 06:23:00,55.1,54.6,30.18,North,11,0.0,0.0,98,0.00,,CLR,0.00,VWS V14.01,2013-10-04 10:23:00,
2013-10-04 06:28:00,55.3,54.8,30.18,North,11,0.0,0.0,98,0.00,,CLR,0.00,VWS V14.01,2013-10-04 10:28:00,
2013-10-04 06:33:00,55.1,54.6,30.18,North,11,0.0,0.0,98,0.00,,CLR,0.00,VWS V14.01,2013-10-04 10:33:00,
2013-10-04 06:38:00,55.1,54.6,30.18,North,11,0.0,0.0,98,0.00,,CLR,0.00,VWS V14.01,2013-10-04 10:38:00,
2013-10-04 06:43:00,55.1,54.6,30.18,North,11,0.0,0.0,98,0.00,,CLR,0.00,VWS V14.01,2013-10-04 10:43:00,
2013-10-04 06:48:00,55.1,54.6,30.18,North,11,0.0,0.0,98,0.00,,CLR,0.00,VWS V14.01,2013-10-04 10:48:00,
2013-10-04 06:53:00,55.0,54.4,30.18,North,11,0.0,0.0,98,0.00,,CLR,0.00,VWS V14.01,2013-10-04 10:53:00,
2013-10-04 06:58:00,55.0,54.4,30.18,North,11,0.0,0.0,98,0.00,,CLR,0.00,VWS V14.01,2013-10-04 10:58:00,
2013-10-04 07:03:00,54.8,54.2,30.18,North,11,0.0,0.0,98,0.00,,,0.00,VWS V14.01,2013-10-04 11:03:00,
2013-10-04 07:08:00,55.0,54.4,30.18,North,11,0.0,0.0,98,0.00,,,0.00,VWS V14.01,2013-10-04 11:08:00,
2013-10-04 07:14:00,55.0,54.4,30.18,North,11,0.0,0.0,98,0.00,,,0.00,VWS V14.01,2013-10-04 11:14:00,
2013-10-04 07:19:00,55.0,54.4,30.18,North,11,0.0,0.0,98,0.00,,,0.00,VWS V14.01,2013-10-04 11:19:00,
2013-10-04 07:24:00,55.1,54.6,30.18,North,11,0.0,0.0,98,0.00,,,0.00,VWS V14.01,2013-10-04 11:24:00,
2013-10-04 07:29:00,55.1,54.6,30.18,North,11,0.0,0.0,98,0.00,,,0.00,VWS V14.01,2013-10-04 11:29:00,
2013-10-04 07:34:00,55.1,54.6,30.18,North,11,0.0,0.0,98,0.00,,,0.00,VWS V14.01,2013-10-04 11:34:00,
2013-10-04 07:39:00,55.3,54.8,30.18,North,11,0.0,0.0,98,0.00,,,0.00,VWS V14.01,2013-10-04 11:39:00,
2013-10-04 07:44:00,55.3,54.8,30.18,North,11,0.0,0.0,98,0.00,,,0.00,VWS V14.01,2013-10-04 11:44:00,
2013-10-04 07:49:00,55.1,54.6,30.18,NW,322,0.0,0.0,98,0.00,,,0.00,VWS V14.01,2013-10-04 11:49:00,
2013-10-04 07:54:00,55.1,54.6,30.18,NW,322,0.0,0.0,98,0.00,,,0.00,VWS V14.01,2013-10-04 11:54:00,
2013-10-04 07:59:00,55.3,54.8,30.18,NW,322,0.0,0.0,98,0.00,,,0.00,VWS V14.01,2013-10-04 11:59:00,
2013-10-04 08:04:00,55.3,54.8,30.18,NW,322,0.0,0.0,98,0.00,,,0.00,VWS V14.01,2013-10-04 12:04:00,
2013-10-04 08:09:00,55.3,54.8,30.18,NW,313,0.0,0.0,98,0.00,,,0.00,VWS V14.01,2013-10-04 12:09:00,
2013-10-04 08:14:00,55.1,54.6,30.18,NW,324,0.0,0.0,98,0.00,,,0.00,VWS V14.01,2013-10-04 12:14:00,
2013-10-04 08:19:00,55.3,54.8,30.21,NW,324,0.0,0.0,98,0.00,,,0.00,VWS V14.01,2013-10-04 12:19:00,
2013-10-04 08:24:00,55.3,54.8,30.21,South,171,0.0,0.0,98,0.00,,,0.00,VWS V14.01,2013-10-04 12:24:00,
2013-10-04 08:29:00,55.7,55.1,30.21,SSE,168,0.0,0.0,98,0.00,,,0.00,VWS V14.01,2013-10-04 12:29:00,
2013-10-04 08:34:00,55.7,55.1,30.21,SSE,156,0.0,0.0,98,0.00,,,0.00,VWS V14.01,2013-10-04 12:34:00,
2013-10-04 08:39:00,55.7,55.1,30.21,SSE,162,0.0,0.0,98,0.00,,,0.00,VWS V14.01,2013-10-04 12:39:00,
2013-10-04 08:44:00,55.9,55.3,30.21,SSE,162,0.0,0.0,98,0.00,,,0.00,VWS V14.01,2013-10-04 12:44:00,
2013-10-04 08:49:00,56.1,55.5,30.21,SSE,162,0.0,0.0,98,0.00,,,0.00,VWS V14.01,2013-10-04 12:49:00,
2013-10-04 08:54:00,56.1,55.5,30.21,SSE,162,0.0,0.0,98,0.00,,,0.00,VWS V14.01,2013-10-04 12:54:00,
2013-10-04 08:59:00,56.1,55.5,30.21,SSE,162,0.0,0.0,98,0.00,,,0.00,VWS V14.01,2013-10-04 12:59:00,
2013-10-04 09:04:00,56.2,55.7,30.21,SSE,162,0.0,0.0,98,0.00,,OVC027,0.00,VWS V14.01,2013-10-04 13:04:00,
2013-10-04 09:09:00,56.6,56.1,30.21,SSE,162,0.0,0.0,98,0.00,,OVC027,0.00,VWS V14.01,2013-10-04 13:09:00,
2013-10-04 09:14:00,56.8,56.2,30.21,SSE,162,0.0,0.0,98,0.00,,OVC027,0.00,VWS V14.01,2013-10-04 13:14:00,
2013-10-04 09:19:00,57.0,56.4,30.21,SSW,208,0.0,0.0,98,0.00,,OVC027,0.00,VWS V14.01,2013-10-04 13:19:00,
2013-10-04 09:24:00,57.0,56.4,30.21,SSE,163,0.0,0.0,98,0.00,,OVC027,0.00,VWS V14.01,2013-10-04 13:24:00,
2013-10-04 09:29:00,57.0,56.4,30.21,SE,126,0.0,0.0,98,0.00,,OVC027,0.00,VWS V14.01,2013-10-04 13:29:00,
2013-10-04 09:34:00,57.4,56.8,30.21,SSE,151,0.0,0.0,98,0.00,,OVC027,0.00,VWS V14.01,2013-10-04 13:34:00,
2013-10-04 09:39:00,57.5,57.0,30.21,SSW,201,0.0,0.0,98,0.00,,OVC027,0.00,VWS V14.01,2013-10-04 13:39:00,
2013-10-04 09:44:00,57.7,57.2,30.21,SSW,203,0.0,0.0,98,0.00,,OVC027,0.00,VWS V14.01,2013-10-04 13:44:00,
2013-10-04 09:49:00,57.9,57.4,30.21,SSW,202,0.0,0.0,98,0.00,,BKN046,0.00,VWS V14.01,2013-10-04 13:49:00,
2013-10-04 09:54:00,58.3,57.7,30.21,SSW,193,0.0,0.0,98,0.00,,BKN046,0.00,VWS V14.01,2013-10-04 13:54:00,
2013-10-04 09:59:00,58.7,58.1,30.21,SW,226,0.0,0.0,98,0.00,,BKN046,0.00,VWS V14.01,2013-10-04 13:59:00,
2013-10-04 10:04:00,59.2,58.7,30.21,SW,226,0.0,0.0,98,0.00,,OVC048,0.00,VWS V14.01,2013-10-04 14:04:00,
2013-10-04 10:09:00,59.8,59.2,30.21,NNW,335,0.0,0.0,98,0.00,,OVC048,0.00,VWS V14.01,2013-10-04 14:09:00,
2013-10-04 10:15:00,60.1,59.6,30.21,NW,311,0.0,0.0,98,0.00,,OVC048,0.00,VWS V14.01,2013-10-04 14:15:00,
2013-10-04 10:20:00,60.5,60.0,30.21,SSW,197,0.0,0.0,98,0.00,,OVC048,0.00,VWS V14.01,2013-10-04 14:20:00,
2013-10-04 10:25:00,60.9,60.3,30.21,WSW,254,3.0,4.3,98,0.00,,OVC048,0.00,VWS V14.01,2013-10-04 14:25:00,
2013-10-04 10:30:00,61.1,60.5,30.21,WNW,297,3.0,3.2,98,0.00,,OVC048,0.00,VWS V14.01,2013-10-04 14:30:00,
2013-10-04 10:35:00,61.4,60.9,30.21,WSW,257,3.0,3.2,98,0.00,,OVC048,0.00,VWS V14.01,2013-10-04 14:35:00,
2013-10-04 10:40:00,61.6,61.1,30.21,NW,314,3.9,5.9,98,0.00,,OVC048,0.00,VWS V14.01,2013-10-04 14:40:00,
2013-10-04 10:45:00,61.6,61.1,30.21,NNW,341,5.4,5.9,98,0.00,,OVC048,0.00,VWS V14.01,2013-10-04 14:45:00,
2013-10-04 10:50:00,61.8,61.2,30.21,NNW,330,3.0,4.3,98,0.00,,OVC048,0.00,VWS V14.01,2013-10-04 14:50:00,
2013-10-04 10:55:00,62.4,61.8,30.21,South,171,3.0,4.8,98,0.00,,OVC048,0.00,VWS V14.01,2013-10-04 14:55:00,
2013-10-04 11:00:00,63.3,62.7,30.21,WSW,248,3.4,3.8,98,0.00,,,0.00,VWS V14.01,2013-10-04 15:00:00,
2013-10-04 11:05:00,63.7,63.1,30.21,SE,140,3.0,3.2,98,0.00,,,0.00,VWS V14.01,2013-10-04 15:05:00,
2013-10-04 11:10:00,64.4,63.8,30.21,NNW,328,3.0,3.2,98,0.00,,,0.00,VWS V14.01,2013-10-04 15:10:00,
2013-10-04 11:15:00,65.0,64.1,30.21,West,272,0.0,0.0,97,0.00,,,0.00,VWS V14.01,2013-10-04 15:15:00,
2013-10-04 11:17:00,65.2,64.0,30.21,West,272,0.0,0.0,96,0.00,,,0.00,VWS V14.01,2013-10-04 15:17:00,
2013-10-04 11:22:00,65.3,63.9,30.21,West,267,3.9,4.8,95,0.00,,,0.00,VWS V14.01,2013-10-04 15:22:00,
2013-10-04 11:27:00,65.7,63.9,30.21,West,275,0.0,3.8,94,0.00,,,0.00,VWS V14.01,2013-10-04 15:27:00,
2013-10-04 11:32:00,66.3,64.5,30.21,NW,304,4.4,4.8,94,0.00,,,0.00,VWS V14.01,2013-10-04 15:32:00,
2013-10-04 11:37:00,67.4,65.0,30.21,SSE,159,5.9,6.4,92,0.00,,,0.00,VWS V14.01,2013-10-04 15:37:00,
2013-10-04 11:42:00,67.7,64.7,30.21,South,185,2.5,3.8,90,0.00,,,0.00,VWS V14.01,2013-10-04 15:42:00,
2013-10-04 11:47:00,67.7,64.7,30.18,SE,134,0.0,2.7,90,0.00,,,0.00,VWS V14.01,2013-10-04 15:47:00,
2013-10-04 11:52:00,67.9,64.6,30.18,SW,228,3.0,3.2,89,0.00,,,0.00,VWS V14.01,2013-10-04 15:52:00,
2013-10-04 11:57:00,69.0,65.3,30.18,North,2,0.0,0.0,88,0.00,,,0.00,VWS V14.01,2013-10-04 15:57:00,
2013-10-04 12:02:00,69.6,65.2,30.18,ESE,108,0.0,0.0,86,0.00,,FEW024,0.00,VWS V14.01,2013-10-04 16:02:00,
2013-10-04 12:07:00,70.5,65.1,30.18,SSE,165,2.5,7.0,83,0.00,,FEW024,0.00,VWS V14.01,2013-10-04 16:07:00,
2013-10-04 12:12:00,71.4,65.0,30.18,West,262,2.5,4.3,80,0.00,,FEW024,0.00,VWS V14.01,2013-10-04 16:12:00,
2013-10-04 12:17:00,71.3,63.3,30.18,SSW,192,3.4,4.3,76,0.00,,FEW024,0.00,VWS V14.01,2013-10-04 16:17:00,
2013-10-04 12:22:00,71.4,63.1,30.18,South,177,3.4,4.8,75,0.00,,FEW024,0.00,VWS V14.01,2013-10-04 16:22:00,
2013-10-04 12:27:00,72.0,62.1,30.18,South,178,4.4,4.8,71,0.00,,FEW024,0.00,VWS V14.01,2013-10-04 16:27:00,
2013-10-04 12:32:00,72.8,61.6,30.18,SSW,197,3.0,7.0,68,0.00,,FEW024,0.00,VWS V14.01,2013-10-04 16:32:00,
2013-10-04 12:37:00,73.3,60.8,30.18,SSW,194,3.0,4.3,65,0.00,,FEW024,0.00,VWS V14.01,2013-10-04 16:37:00,
2013-10-04 12:42:00,73.5,61.5,30.18,SSW,193,3.9,4.8,66,0.00,,FEW024,0.00,VWS V14.01,2013-10-04 16:42:00,
2013-10-04 12:47:00,73.9,62.2,30.18,WSW,246,0.0,0.0,67,0.00,,FEW024,0.00,VWS V14.01,2013-10-04 16:47:00,
2013-10-04 12:52:00,74.6,62.1,30.18,SE,145,3.9,6.4,65,0.00,,FEW024,0.00,VWS V14.01,2013-10-04 16:52:00,
2013-10-04 12:57:00,74.8,60.9,30.18,SSW,211,3.4,5.9,62,0.00,,FEW024,0.00,VWS V14.01,2013-10-04 16:57:00,
2013-10-04 13:03:00,75.3,61.0,30.18,SSE,160,4.4,7.0,61,0.00,,BKN050,0.00,VWS V14.01,2013-10-04 17:03:00,
2013-10-04 13:08:00,75.9,61.5,30.18,NNW,330,0.0,4.3,61,0.00,,BKN050,0.00,VWS V14.01,2013-10-04 17:08:00,
2013-10-04 13:13:00,76.3,60.9,30.18,SSW,212,3.4,7.0,59,0.00,,BKN050,0.00,VWS V14.01,2013-10-04 17:13:00,
2013-10-04 13:18:00,76.8,61.4,30.15,NW,313,2.5,5.9,59,0.00,,BKN050,0.00,VWS V14.01,2013-10-04 17:18:00,
2013-10-04 13:23:00,77.4,62.4,30.15,WSW,240,5.4,6.4,60,0.00,,BKN050,0.00,VWS V14.01,2013-10-04 17:23:00,
2013-10-04 13:28:00,77.8,60.8,30.15,SSE,156,6.9,7.5,56,0.00,,BKN050,0.00,VWS V14.01,2013-10-04 17:28:00,
2013-10-04 13:33:00,77.8,61.3,30.15,SSW,209,5.9,6.4,57,0.00,,BKN050,0.00,VWS V14.01,2013-10-04 17:33:00,
2013-10-04 13:58:00,79.6,60.5,30.15,SW,225,3.9,4.3,52,0.00,,BKN050,0.00,VWS V14.01,2013-10-04 17:58:00,
2013-10-04 14:03:00,79.2,60.1,30.15,SSE,153,4.4,6.4,52,0.00,,,0.00,VWS V14.01,2013-10-04 18:03:00,
2013-10-04 14:08:00,79.4,60.3,30.15,WNW,284,4.4,7.0,52,0.00,,,0.00,VWS V14.01,2013-10-04 18:08:00,
2013-10-04 14:13:00,80.3,61.7,30.15,SE,131,8.4,9.1,53,0.00,,,0.00,VWS V14.01,2013-10-04 18:13:00,
2013-10-04 14:18:00,80.3,58.9,30.15,South,186,6.9,7.5,48,0.00,,,0.00,VWS V14.01,2013-10-04 18:18:00,
2013-10-04 14:23:00,80.9,60.0,30.15,South,190,3.4,7.0,49,0.00,,,0.00,VWS V14.01,2013-10-04 18:23:00,
2013-10-04 14:28:00,81.1,60.7,30.15,SSW,212,3.9,10.5,50,0.00,,,0.00,VWS V14.01,2013-10-04 18:28:00,
2013-10-04 14:33:00,81.3,59.7,30.15,SE,138,7.4,8.1,48,0.00,,,0.00,VWS V14.01,2013-10-04 18:33:00,
2013-10-04 14:38:00,80.9,59.4,30.15,South,184,0.0,3.8,48,0.00,,,0.00,VWS V14.01,2013-10-04 18:38:00,
2013-10-04 14:43:00,80.2,57.5,30.15,SW,232,3.4,4.3,46,0.00,,,0.00,VWS V14.01,2013-10-04 18:43:00,
2013-10-04 14:49:00,80.7,58.0,30.12,NNW,335,4.4,4.8,46,0.00,,,0.00,VWS V14.01,2013-10-04 18:49:00,
2013-10-04 14:54:00,82.0,59.2,30.12,NW,307,5.9,6.4,46,0.00,,,0.00,VWS V14.01,2013-10-04 18:54:00,
2013-10-04 14:59:00,82.2,58.1,30.12,WNW,297,6.9,8.6,44,0.00,,,0.00,VWS V14.01,2013-10-04 18:59:00,
2013-10-04 15:04:00,82.4,58.3,30.12,NW,307,5.9,6.4,44,0.00,,FEW032,0.00,VWS V14.01,2013-10-04 19:04:00,
2013-10-04 15:09:00,82.4,57.7,30.12,WNW,284,2.5,5.9,43,0.00,,FEW032,0.00,VWS V14.01,2013-10-04 19:09:00,
2013-10-04 15:14:00,82.2,56.8,30.12,NW,326,3.0,4.8,42,0.00,,FEW032,0.00,VWS V14.01,2013-10-04 19:14:00,
2013-10-04 15:19:00,82.2,56.8,30.12,WSW,245,3.4,3.8,42,0.00,,FEW032,0.00,VWS V14.01,2013-10-04 19:19:00,
2013-10-04 15:24:00,83.3,58.5,30.12,South,173,3.9,4.3,43,0.00,,FEW032,0.00,VWS V14.01,2013-10-04 19:24:00,
2013-10-04 15:29:00,83.7,58.2,30.12,NW,326,4.4,5.9,42,0.00,,FEW032,0.00,VWS V14.01,2013-10-04 19:29:00,
2013-10-04 15:34:00,84.2,58.7,30.12,SSE,162,4.4,4.8,42,0.00,,FEW032,0.00,VWS V14.01,2013-10-04 19:34:00,
2013-10-04 15:39:00,83.9,57.0,30.12,SSW,195,3.4,7.5,40,0.00,,FEW032,0.00,VWS V14.01,2013-10-04 19:39:00,
2013-10-04 15:44:00,83.7,56.8,30.12,SSE,168,6.4,7.0,40,0.00,,FEW032,0.00,VWS V14.01,2013-10-04 19:44:00,
2013-10-04 15:49:00,83.9,57.7,30.12,SSW,208,2.5,3.8,41,0.00,,FEW032,0.00,VWS V14.01,2013-10-04 19:49:00,
2013-10-04 15:54:00,84.1,57.2,30.12,WSW,251,3.0,3.2,40,0.00,,FEW032,0.00,VWS V14.01,2013-10-04 19:54:00,
2013-10-04 15:59:00,84.2,57.3,30.12,WSW,243,3.9,4.8,40,0.00,,FEW032,0.00,VWS V14.01,2013-10-04 19:59:00,
2013-10-04 16:04:00,84.1,56.5,30.12,NE,52,3.0,3.2,39,0.00,,BKN110,0.00,VWS V14.01,2013-10-04 20:04:00,
2013-10-04 16:09:00,84.8,57.8,30.12,SE,134,3.9,5.9,40,0.00,,BKN110,0.00,VWS V14.01,2013-10-04 20:09:00,
2013-10-04 16:14:00,84.2,56.6,30.12,SW,216,3.4,4.8,39,0.00,,BKN110,0.00,VWS V14.01,2013-10-04 20:14:00,
2013-10-04 16:19:00,83.9,56.3,30.12,South,179,3.9,4.8,39,0.00,,BKN110,0.00,VWS V14.01,2013-10-04 20:19:00,
2013-10-04 16:24:00,84.1,57.2,30.12,SSE,163,0.0,0.0,40,0.00,,BKN110,0.00,VWS V14.01,2013-10-04 20:24:00,
2013-10-04 16:29:00,83.3,57.2,30.12,NW,322,3.0,3.2,41,0.00,,BKN110,0.00,VWS V14.01,2013-10-04 20:29:00,
2013-10-04 16:34:00,83.5,57.3,30.12,NW,322,2.5,4.3,41,0.00,,BKN110,0.00,VWS V14.01,2013-10-04 20:34:00,
2013-10-04 16:39:00,82.8,58.0,30.12,NW,322,2.5,3.8,43,0.00,,BKN110,0.00,VWS V14.01,2013-10-04 20:39:00,
2013-10-04 16:45:00,81.8,57.2,30.12,NW,307,5.4,6.4,43,0.00,,BKN110,0.00,VWS V14.01,2013-10-04 20:45:00,
2013-10-04 16:50:00,80.9,56.3,30.12,NW,311,3.4,3.8,43,0.00,,BKN110,0.00,VWS V14.01,2013-10-04 20:50:00,
2013-10-04 16:55:00,81.1,57.1,30.12,NW,311,0.0,0.0,44,0.00,,BKN110,0.00,VWS V14.01,2013-10-04 20:55:00,
2013-10-04 17:00:00,80.5,57.9,30.12,NW,311,0.0,0.0,46,0.00,,SCT120,0.00,VWS V14.01,2013-10-04 21:00:00,
2013-10-04 17:05:00,80.3,58.3,30.12,NW,311,0.0,0.0,47,0.00,,SCT120,0.00,VWS V14.01,2013-10-04 21:05:00,
2013-10-04 17:10:00,80.0,59.1,30.12,East,98,0.0,3.2,49,0.00,,SCT120,0.00,VWS V14.01,2013-10-04 21:10:00,
2013-10-04 17:15:00,79.4,58.6,30.12,ENE,61,3.0,3.2,49,0.00,,SCT120,0.00,VWS V14.01,2013-10-04 21:15:00,
2013-10-04 17:20:00,79.1,58.3,30.12,ENE,69,2.5,3.2,49,0.00,,SCT120,0.00,VWS V14.01,2013-10-04 21:20:00,
2013-10-04 17:25:00,78.5,58.9,30.12,ENE,69,2.5,2.7,51,0.00,,SCT120,0.00,VWS V14.01,2013-10-04 21:25:00,
2013-10-04 17:30:00,78.1,58.5,30.12,ENE,69,0.0,2.7,51,0.00,,SCT120,0.00,VWS V14.01,2013-10-04 21:30:00,
2013-10-04 17:35:00,77.9,58.9,30.12,ENE,69,2.5,2.7,52,0.00,,SCT120,0.00,VWS V14.01,2013-10-04 21:35:00,
2013-10-04 17:40:00,77.6,58.6,30.12,ENE,69,3.0,3.2,52,0.00,,SCT120,0.00,VWS V14.01,2013-10-04 21:40:00,
2013-10-04 17:45:00,77.4,58.4,30.12,ENE,69,0.0,0.0,52,0.00,,SCT120,0.00,VWS V14.01,2013-10-04 21:45:00,
2013-10-04 17:50:00,77.4,58.4,30.12,ENE,69,0.0,0.0,52,0.00,,SCT120,0.00,VWS V14.01,2013-10-04 21:50:00,
2013-10-04 17:55:00,77.2,59.3,30.12,SE,145,0.0,0.0,54,0.00,,SCT120,0.00,VWS V14.01,2013-10-04 21:55:00,
2013-10-04 18:00:00,76.8,59.5,30.12,East,98,0.0,2.7,55,0.00,,FEW050,0.00,VWS V14.01,2013-10-04 22:00:00,
2013-10-04 18:05:00,76.6,59.8,30.12,ESE,104,2.5,2.7,56,0.00,,FEW050,0.00,VWS V14.01,2013-10-04 22:05:00,
2013-10-04 18:10:00,76.8,60.5,30.12,SSE,159,0.0,2.7,57,0.00,,FEW050,0.00,VWS V14.01,2013-10-04 22:10:00,
2013-10-04 18:15:00,76.8,60.0,30.12,ESE,116,0.0,2.7,56,0.00,,FEW050,0.00,VWS V14.01,2013-10-04 22:15:00,
2013-10-04 18:20:00,76.8,60.0,30.12,ESE,116,0.0,0.0,56,0.00,,FEW050,0.00,VWS V14.01,2013-10-04 22:20:00,
2013-10-04 18:26:00,76.6,59.8,30.12,ESE,116,0.0,0.0,56,0.00,,FEW050,0.00,VWS V14.01,2013-10-04 22:26:00,
2013-10-04 18:31:00,76.5,60.1,30.12,NW,318,0.0,0.0,57,0.00,,FEW050,0.00,VWS V14.01,2013-10-04 22:31:00,
2013-10-04 18:36:00,76.3,60.9,30.12,NNW,328,3.0,3.2,59,0.00,,FEW050,0.00,VWS V14.01,2013-10-04 22:36:00,
2013-10-04 18:41:00,76.1,61.2,30.12,NW,314,0.0,0.0,60,0.00,,FEW050,0.00,VWS V14.01,2013-10-04 22:41:00,
2013-10-04 18:46:00,75.7,61.3,30.15,NE,37,0.0,0.0,61,0.00,,FEW050,0.00,VWS V14.01,2013-10-04 22:46:00,
2013-10-04 18:51:00,75.3,61.0,30.15,NE,37,0.0,0.0,61,0.00,,FEW050,0.00,VWS V14.01,2013-10-04 22:51:00,
2013-10-04 18:56:00,75.2,60.8,30.15,NE,37,0.0,0.0,61,0.00,,FEW050,0.00,VWS V14.01,2013-10-04 22:56:00,
2013-10-04 19:01:00,74.8,60.9,30.15,NE,37,0.0,0.0,62,0.00,,CLR,0.00,VWS V14.01,2013-10-04 23:01:00,
2013-10-04 19:06:00,74.4,60.1,30.15,NE,37,0.0,0.0,61,0.00,,CLR,0.00,VWS V14.01,2013-10-04 23:06:00,
2013-10-04 19:11:00,74.2,59.9,30.15,NE,37,0.0,0.0,61,0.00,,CLR,0.00,VWS V14.01,2013-10-04 23:11:00,
2013-10-04 19:16:00,73.9,59.6,30.15,NE,37,0.0,0.0,61,0.00,,CLR,0.00,VWS V14.01,2013-10-04 23:16:00,
2013-10-04 19:21:00,73.7,59.9,30.15,NE,37,0.0,0.0,62,0.00,,CLR,0.00,VWS V14.01,2013-10-04 23:21:00,
2013-10-04 19:26:00,72.4,59.5,30.15,NE,37,0.0,0.0,64,0.00,,CLR,0.00,VWS V14.01,2013-10-04 23:26:00,
2013-10-04 19:31:00,72.6,60.1,30.15,NE,37,0.0,0.0,65,0.00,,CLR,0.00,VWS V14.01,2013-10-04 23:31:00,
2013-10-04 19:36:00,72.4,60.4,30.15,NE,37,0.0,0.0,66,0.00,,CLR,0.00,VWS V14.01,2013-10-04 23:36:00,
2013-10-04 19:41:00,72.2,60.6,30.15,NE,37,0.0,0.0,67,0.00,,CLR,0.00,VWS V14.01,2013-10-04 23:41:00,
2013-10-04 19:46:00,71.6,60.1,30.15,WSW,238,0.0,0.0,67,0.00,,CLR,0.00,VWS V14.01,2013-10-04 23:46:00,
2013-10-04 19:51:00,71.4,60.3,30.15,WNW,283,0.0,0.0,68,0.00,,CLR,0.00,VWS V14.01,2013-10-04 23:51:00,
2013-10-04 19:56:00,71.4,60.3,30.15,WNW,283,0.0,0.0,68,0.00,,CLR,0.00,VWS V14.01,2013-10-04 23:56:00,
2013-10-04 20:01:00,71.3,60.6,30.15,WNW,283,0.0,0.0,69,0.00,,CLR,0.00,VWS V14.01,2013-10-05 00:01:00,
2013-10-04 20:06:00,70.9,60.2,30.15,WNW,283,0.0,0.0,69,0.00,,CLR,0.00,VWS V14.01,2013-10-05 00:06:00,
2013-10-04 20:11:00,70.7,60.8,30.15,WNW,283,0.0,2.7,71,0.00,,CLR,0.00,VWS V14.01,2013-10-05 00:11:00,
2013-10-04 20:16:00,70.7,61.2,30.15,WNW,283,2.5,2.7,72,0.00,,CLR,0.00,VWS V14.01,2013-10-05 00:16:00,
2013-10-04 20:21:00,70.5,61.1,30.15,WNW,283,0.0,0.0,72,0.00,,CLR,0.00,VWS V14.01,2013-10-05 00:21:00,
2013-10-04 20:26:00,70.2,61.1,30.15,West,260,0.0,3.8,73,0.00,,CLR,0.00,VWS V14.01,2013-10-05 00:26:00,
2013-10-04 20:31:00,70.0,61.3,30.15,West,260,3.0,3.2,74,0.00,,CLR,0.00,VWS V14.01,2013-10-05 00:31:00,
2013-10-04 20:36:00,69.8,61.1,30.15,NE,47,0.0,0.0,74,0.00,,CLR,0.00,VWS V14.01,2013-10-05 00:36:00,
2013-10-04 20:41:00,69.4,61.2,30.15,NE,47,2.5,2.7,75,0.00,,CLR,0.00,VWS V14.01,2013-10-05 00:41:00,
2013-10-04 20:46:00,69.0,61.2,30.15,East,97,0.0,3.2,76,0.00,,CLR,0.00,VWS V14.01,2013-10-05 00:46:00,
2013-10-04 20:51:00,68.7,60.8,30.15,ENE,58,3.4,3.8,76,0.00,,CLR,0.00,VWS V14.01,2013-10-05 00:51:00,
2013-10-04 20:56:00,68.7,61.2,30.15,ENE,59,3.0,3.2,77,0.00,,CLR,0.00,VWS V14.01,2013-10-05 00:56:00,
2013-10-04 21:01:00,68.5,61.4,30.18,ENE,59,2.5,2.7,78,0.00,,CLR,0.00,VWS V14.01,2013-10-05 01:01:00,
2013-10-04 21:06:00,68.5,61.4,30.18,ENE,59,2.5,3.2,78,0.00,,CLR,0.00,VWS V14.01,2013-10-05 01:06:00,
2013-10-04 21:11:00,68.3,61.2,30.18,ENE,58,0.0,0.0,78,0.00,,CLR,0.00,VWS V14.01,2013-10-05 01:11:00,
2013-10-04 21:16:00,68.1,61.0,30.18,ENE,59,0.0,0.0,78,0.00,,CLR,0.00,VWS V14.01,2013-10-05 01:16:00,
2013-10-04 21:21:00,67.4,60.3,30.18,ENE,59,0.0,0.0,78,0.00,,CLR,0.00,VWS V14.01,2013-10-05 01:21:00,
2013-10-04 21:26:00,67.6,60.8,30.18,ENE,59,0.0,0.0,79,0.00,,CLR,0.00,VWS V14.01,2013-10-05 01:26:00,
2013-10-04 21:31:00,67.4,60.6,30.18,ENE,59,0.0,2.7,79,0.00,,CLR,0.00,VWS V14.01,2013-10-05 01:31:00,
2013-10-04 21:36:00,67.4,61.0,30.18,ENE,58,0.0,0.0,80,0.00,,CLR,0.00,VWS V14.01,2013-10-05 01:36:00,
2013-10-04 21:41:00,67.2,60.8,30.18,ENE,58,0.0,0.0,80,0.00,,CLR,0.00,VWS V14.01,2013-10-05 01:41:00,
2013-10-04 21:46:00,66.6,60.6,30.18,ENE,59,0.0,0.0,81,0.00,,CLR,0.00,VWS V14.01,2013-10-05 01:46:00,
2013-10-04 21:51:00,66.8,61.2,30.18,ENE,59,0.0,0.0,82,0.00,,CLR,0.00,VWS V14.01,2013-10-05 01:51:00,
2013-10-04 21:57:00,66.3,60.3,30.18,ENE,59,0.0,0.0,81,0.00,,CLR,0.00,VWS V14.01,2013-10-05 01:57:00,
2013-10-04 22:02:00,66.1,60.4,30.18,ENE,59,0.0,0.0,82,0.00,,CLR,0.00,VWS V14.01,2013-10-05 02:02:00,
2013-10-04 22:07:00,65.9,60.6,30.18,ENE,59,0.0,0.0,83,0.00,,CLR,0.00,VWS V14.01,2013-10-05 02:07:00,
2013-10-04 22:12:00,65.9,60.6,30.18,ENE,58,0.0,0.0,83,0.00,,CLR,0.00,VWS V14.01,2013-10-05 02:12:00,
2013-10-04 22:17:00,65.5,60.6,30.18,ENE,59,0.0,0.0,84,0.00,,CLR,0.00,VWS V14.01,2013-10-05 02:17:00,
2013-10-04 22:22:00,65.7,61.1,30.18,ENE,58,0.0,0.0,85,0.00,,CLR,0.00,VWS V14.01,2013-10-05 02:22:00,
2013-10-04 22:27:00,65.3,60.7,30.18,ENE,58,0.0,0.0,85,0.00,,CLR,0.00,VWS V14.01,2013-10-05 02:27:00,
2013-10-04 22:32:00,65.2,60.9,30.15,ENE,59,0.0,0.0,86,0.00,,CLR,0.00,VWS V14.01,2013-10-05 02:32:00,
2013-10-04 22:37:00,65.5,61.2,30.15,ENE,58,0.0,0.0,86,0.00,,CLR,0.00,VWS V14.01,2013-10-05 02:37:00,
2013-10-04 22:42:00,65.5,60.9,30.15,ENE,58,0.0,0.0,85,0.00,,CLR,0.00,VWS V14.01,2013-10-05 02:42:00,
2013-10-04 22:47:00,65.5,60.9,30.18,ENE,59,0.0,0.0,85,0.00,,CLR,0.00,VWS V14.01,2013-10-05 02:47:00,
2013-10-04 22:52:00,65.5,60.6,30.18,ENE,59,0.0,0.0,84,0.00,,CLR,0.00,VWS V14.01,2013-10-05 02:52:00,
2013-10-04 22:57:00,65.2,60.2,30.18,ENE,59,0.0,0.0,84,0.00,,CLR,0.00,VWS V14.01,2013-10-05 02:57:00,
2013-10-04 23:02:00,64.8,59.8,30.18,ENE,59,0.0,0.0,84,0.00,,CLR,0.00,VWS V14.01,2013-10-05 03:02:00,
2013-10-04 23:07:00,65.0,60.0,30.18,ENE,58,0.0,0.0,84,0.00,,CLR,0.00,VWS V14.01,2013-10-05 03:07:00,
2013-10-04 23:12:00,64.8,59.8,30.18,ENE,58,0.0,0.0,84,0.00,,CLR,0.00,VWS V14.01,2013-10-05 03:12:00,
2013-10-04 23:17:00,64.8,60.2,30.18,ENE,59,0.0,0.0,85,0.00,,CLR,0.00,VWS V14.01,2013-10-05 03:17:00,
2013-10-04 23:22:00,64.8,60.2,30.18,ENE,58,0.0,0.0,85,0.00,,CLR,0.00,VWS V14.01,2013-10-05 03:22:00,
2013-10-04 23:27:00,64.8,60.5,30.18,ENE,58,0.0,0.0,86,0.00,,CLR,0.00,VWS V14.01,2013-10-05 03:27:00,
2013-10-04 23:32:00,63.8,58.9,30.18,ENE,59,0.0,0.0,84,0.00,,CLR,0.00,VWS V14.01,2013-10-05 03:32:00,
2013-10-04 23:37:00,63.8,59.3,30.18,ENE,58,0.0,0.0,85,0.00,,CLR,0.00,VWS V14.01,2013-10-05 03:37:00,
2013-10-04 23:42:00,63.8,59.6,30.18,ENE,58,0.0,0.0,86,0.00,,CLR,0.00,VWS V14.01,2013-10-05 03:42:00,
2013-10-04 23:47:00,63.5,59.5,30.18,ENE,59,0.0,0.0,87,0.00,,CLR,0.00,VWS V14.01,2013-10-05 03:47:00,
2013-10-04 23:52:00,63.5,59.5,30.18,ENE,59,0.0,0.0,87,0.00,,CLR,0.00,VWS V14.01,2013-10-05 03:52:00,
2013-10-04 23:57:00,63.7,59.7,30.18,ENE,58,0.0,0.0,87,0.00,,CLR,0.00,VWS V14.01,2013-10-05 03:57:00,